Regional Weather Roundup
Issued by NWS Little Rock, AR

Home | Current Version | Previous Version | Graphics & Text | Print | Product List | Glossary On
Versions: 1 2 3 4 5 6 7 8 9 10 11 12 13 14 15 16 17 18 19 20 21 22 23 24 25 26 27 28 29 30 31 32 33 34 35 36 37 38 39 40 41 42 43 44 45 46 47 48 49 50
000
ASUS44 KLZK 231205
RWRLZK

WEATHER ROUNDUP FOR ARKANSAS
NATIONAL WEATHER SERVICE LITTLE ROCK AR
700 AM CDT MON OCT 23 2017

NOTE: "FAIR" INDICATES FEW OR NO CLOUDS BELOW 12,000 FEET WITH NO
SIGNIFICANT WEATHER AND/OR OBSTRUCTIONS TO VISIBILITY.

ARZ001-003-010-029-231300-
NORTHWEST ARKANSAS

CITY           SKY/WX    TMP DP  RH WIND       PRES   REMARKS
FAYETTEVILLE   CLEAR     37  37 100 CALM      30.05F
6HR MIN TEMP:  36; 6HR MAX TEMP:  41;

FORT SMITH     CLEAR     45  44  97 CALM      30.07R
6HR MIN TEMP:  44; 6HR MAX TEMP:  48;

HARRISON       CLEAR     47  39  74 W8        30.02S
6HR MIN TEMP:  45; 6HR MAX TEMP:  50;

BENTONVILLE    CLEAR     40  39  97 S5        30.05F
6HR MIN TEMP:  40; 6HR MAX TEMP:  43;

ROGERS         CLEAR     43  40  89 S6        30.04F
6HR MIN TEMP:  42; 6HR MAX TEMP:  44;

SILOAM SPGS    CLEAR     37  37 100 SE3       30.05F
6HR MIN TEMP:  37; 6HR MAX TEMP:  42; 6HR PCP: TRACE;

HIGHFILL       CLEAR     38  38 100 SW3       30.04F
6HR MIN TEMP:  38; 6HR MAX TEMP:  44;

SPRINGDALE     CLEAR     39  39 100 CALM      30.06F
$$

ARZ004-005-016-231300-
NORTH CENTRAL ARKANSAS

CITY           SKY/WX    TMP DP  RH WIND       PRES   REMARKS
BATESVILLE     CLOUDY    50  47  89 NW5       30.00R
6HR MIN TEMP:  48; 6HR MAX TEMP:  52;

FLIPPIN        CLOUDY    48  46  93 CALM      30.02R
6HR MIN TEMP:  48; 6HR MAX TEMP:  52;

MTN HOME       CLOUDY    48  48 100 CALM      30.00R
6HR MIN TEMP:  48; 6HR MAX TEMP:  51; 6HR PCP: TRACE;

$$

ARZ040-041-231300-
WEST CENTRAL ARKANSAS

CITY           SKY/WX    TMP DP  RH WIND       PRES   REMARKS
MENA           CLEAR     46  46 100 CALM      30.08S
$$

ARZ009-017-025-026-028-231300-
NORTHEAST ARKANSAS

CITY           SKY/WX    TMP DP  RH WIND       PRES   REMARKS
JONESBORO      CLOUDY    52  52 100 W3        29.95F
6HR MIN TEMP:  52; 6HR MAX TEMP:  55; 6HR PCP: TRACE;

NEWPORT        MOCLDY    50  48  93 W9        30.00R
6HR MIN TEMP:  50; 6HR MAX TEMP:  53;

WALNUT RIDGE   PTCLDY    51  50  96 W5        29.96F
6HR MIN TEMP:  50; 6HR MAX TEMP:  54; 6HR PCP:  0.01;

BLYTHEVILLE    CLOUDY    53  53 100 NW7       29.94F
6HR MIN TEMP:  53; 6HR MAX TEMP:  56;

$$

ARZ022-023-033-042-044-231300-
CENTRAL ARKANSAS

CITY           SKY/WX    TMP DP  RH WIND       PRES   REMARKS
LITTLE ROCK    PTCLDY    46  44  93 W6        30.04S
6HR MIN TEMP:  45; 6HR MAX TEMP:  54;

N LITTLE ROCK    N/A     49  44  84 W6        30.05S
6HR MIN TEMP:  48; 6HR MAX TEMP:  53;

JACKSONVILLE   CLEAR     48  44  88 W5        30.02S
6HR MIN TEMP:  46; 6HR MAX TEMP:  54;

SEARCY         PTCLDY    48  48 100 VRB3      30.03R
6HR MIN TEMP:  47; 6HR MAX TEMP:  54;

HOT SPRINGS    CLEAR     46  45  96 W5        30.06S
6HR MIN TEMP:  45; 6HR MAX TEMP:  50;

RUSSELLVILLE   CLEAR     42  42 100 CALM      30.04F FOG
6HR MIN TEMP:  41; 6HR MAX TEMP:  45;

CLINTON        FAIR      46  45  93 CALM      30.04R
$$

ARZ036-231300-
EAST ARKANSAS

CITY           SKY/WX    TMP DP  RH WIND       PRES   REMARKS
WEST MEMPHIS   CLOUDY    53  52  96 W3        29.96F
6HR MIN TEMP:  53; 6HR MAX TEMP:  56; 6HR PCP: TRACE;

$$

ARZ050-053-066-070-073-231300-
SOUTHWEST ARKANSAS

CITY           SKY/WX    TMP DP  RH WIND       PRES   REMARKS
ARKADELPHIA    FAIR      43  42  97 CALM      30.07S
6HR MIN TEMP:  40; 6HR MAX TEMP:  46;

CAMDEN         CLEAR     41  39  93 CALM      30.07S
TEXARKANA      CLEAR     45  45 100 SW6       30.09S
6HR MIN TEMP:  45; 6HR MAX TEMP:  51;

EL DORADO      CLEAR     45  45 100 CALM      30.08S
6HR MIN TEMP:  44; 6HR MAX TEMP:  53;

DE QUEEN       CLEAR     39  39 100 CALM      30.07F FOG
6HR MIN TEMP:  39; 6HR MAX TEMP:  43;

$$

ARZ056-057-069-231300-
SOUTHEAST ARKANSAS

CITY           SKY/WX    TMP DP  RH WIND       PRES   REMARKS
PINE BLUFF     CLEAR     47  44  90 W5        30.05R
6HR MIN TEMP:  47; 6HR MAX TEMP:  56;

STUTTGART      CLEAR     49  46  90 W9        30.04R
6HR MIN TEMP:  49; 6HR MAX TEMP:  54;

MONTICELLO     CLEAR     48  45  89 W5        30.05S
6HR MIN TEMP:  48; 6HR MAX TEMP:  56;


$$





USA.gov is the U.S. government's official web portal to all federal, state and local government web resources and services.